CZ-4 DEB

Satellite information

Favourite Embed

Satellite Type and Status

DEBRISIN ORBIT

Key statistics

Satellite CZ-4 DEB at a glance.

Uptime

12727

Days in orbit

Revolutions

≈ 14.7

Per day

Orbit

SSO

Sun Synchronous Orbit

Inclination

99.1

Latest

Satellite identification and parameters

Extended collection of information and parameters for CZ-4 DEB.

Object identification

Identified? True

Debris? True

Object name: CZ-4 DEB

International designator: 1990-081BL

Object number (NORAD): 20900

Object ID (CCSDS): 20900

Country: PEOPLES REPUBLIC OF CHINA (PRC)

Current information (Y/N): Y

RCS size: SMALL

Orbital parameters

Period: 97.816 minutes

Inclination: 99.0515 deg

SMA: 7032.329 km

Apoapsis: 673.774 km

Periapsis: 634.614 km

RAAN: 230.3607 deg

Eccentricy: 0.0027843

Argument of periapsis: 164.9206 deg

Mean anomaly: 314.9309 deg

Mean motion: 14.72156426 rev/day

Mean motion (dot): 0.00009737 rev/day2

B* drag term: 0.0015441 1/REarth

Two-line elements (TLE)

Creation date: July 8, 2025, 2:27 a.m.

Reference frame: TEME

Reference center: EARTH

Epoch: July 7, 2025, 4:55 p.m. UTC

TLE line 0: 0 CZ-4 DEB

TLE line 1: 1 20900U 90081BL 25188.70501613 .00009737 00000-0 15441-2 0 9999

TLE line 2: 2 20900 99.0515 230.3607 0027843 164.9206 314.9309 14.72156426797375

Live tracking on map

Real-time ground track for satellite CZ-4 DEB.

In-orbit conjunctions

A list of the most updated potential collisions computed for object CZ-4 DEB.

Target Orbit TCA Probability of collision Miss distance Type
H-2A DEB * SSO 2025-06-09 13:31:45 0.0001061079 571.0 (m) DEBRIS

Associated space launch

Chinese polar orbiting meteorological satellite

CZ-4 DEB was lifted into orbit during the mission ‘Long March 4A | Feng Yun 1B’, on board a Long March 4A space rocket.

The launch took place on Sept. 3, 1990, 12:53 a.m. from Launch Complex 7.

For more information about the launch, click the button.

Launch to space Long March 4A | Feng Yun 1B
Long March 4A | Feng Yun 1B

Agency: N/A

Status: Launch Successful

Launch date: Sept. 3, 1990, 12:53 a.m. UTC

Rocket: Long March 4A

Launch pad: Launch Complex 7

Location: Taiyuan Satellite Launch Center, People's Republic of China

...

Latest news about this satellite

There are no fresh news available about this satellite. Check back as we update our databases every day.


Newsletter sign-up

Weekly statistics, charts and insights to help you stay on top of the space industry.